GFSNE_850_temp_000.txt.gz
Temp
-0 -0 -1 -1 -1 -1 -1 -1 -0 -1 -1 -0 0 1 1 2 3 3 3 3 3 4 4 4 5 5 5 6 6 7 7 8 8 9 9 7 7 6
-1 -1 -1 -1 -1 -1 -1 -1 -1 -1 -1 -1 -1 -0 0 1 1 1 2 2 3 3 4 4 4 4 5 5 6 6 6 7 8 8 9 9 7 6
-2 -2 -2 -2 -2 -2 -2 -2 -2 -2 -2 -2 -1 -1 -1 -0 0 1 1 1 2 2 2 3 3 3 4 4 4 4 5 6 6 7 8 8 8 7
-3 -3 -3 -3 -3 -3 -3 -3 -2 -2 -2 -3 -2 -2 -2 -2 -1 -0 0 1 1 1 2 2 3 3 3 3 3 4 4 5 5 6 7 7 7 8
-4 -4 -4 -4 -4 -4 -4 -4 -3 -3 -3 -3 -4 -3 -3 -2 -2 -2 -1 -1 -0 0 1 2 2 2 2 2 3 3 3 4 5 5 6 7 8 7
-4 -4 -4 -4 -5 -5 -5 -5 -5 -5 -5 -5 -5 -5 -5 -4 -4 -4 -3 -2 -2 -1 -0 1 1 2 1 2 2 2 2 3 4 5 5 6 6 8
-5 -5 -5 -5 -6 -6 -6 -6 -6 -6 -6 -6 -6 -6 -6 -6 -6 -5 -5 -4 -3 -2 -1 -0 1 1 1 1 2 2 2 3 3 4 4 4 6 6
-6 -6 -7 -7 -7 -7 -7 -7 -7 -7 -8 -8 -8 -8 -8 -8 -7 -6 -6 -5 -4 -3 -2 -1 0 0 1 1 1 2 2 2 3 3 4 4 5 5
-8 -9 -9 -9 -8 -8 -8 -8 -8 -7 -8 -8 -9 -9 -8 -8 -8 -7 -7 -6 -6 -4 -3 -3 -1 -0 0 0 1 1 1 2 2 3 4 4 4 4
-9 -9 -9 -9 -8 -8 -8 -8 -8 -7 -7 -8 -8 -8 -8 -8 -8 -8 -8 -7 -7 -6 -5 -5 -4 -2 -1 -0 0 1 1 1 2 2 2 3 3 3
-9 -9 -9 -10 -9 -10 -9 -9 -9 -8 -8 -8 -8 -8 -8 -8 -8 -8 -8 -7 -7 -7 -7 -6 -5 -4 -2 -1 -0 0 1 1 1 1 1 1 2 2
-9 -9 -9 -9 -9 -9 -10 -10 -9 -9 -8 -8 -8 -8 -8 -8 -8 -8 -8 -7 -7 -7 -6 -6 -6 -4 -4 -2 -0 -0 -0 0 0 1 1 1 1 2
-9 -9 -9 -9 -9 -9 -9 -9 -9 -9 -9 -9 -8 -8 -8 -7 -8 -8 -7 -7 -7 -7 -7 -6 -6 -5 -4 -2 -1 -1 -2 -1 -1 0 1 1 1 1
-9 -10 -10 -10 -9 -9 -8 -9 -9 -9 -9 -9 -9 -8 -8 -7 -7 -7 -7 -7 -7 -7 -7 -7 -6 -6 -5 -3 -3 -1 -2 -3 -2 -1 0 1 1 1
-10 -10 -10 -10 -9 -9 -8 -9 -8 -8 -8 -8 -8 -8 -8 -7 -7 -7 -7 -7 -7 -7 -7 -7 -7 -6 -6 -6 -4 -2 -2 -3 -3 -2 -2 -2 -1 0
-10 -10 -10 -10 -10 -10 -9 -8 -8 -7 -7 -8 -8 -7 -8 -8 -8 -8 -8 -7 -7 -7 -6 -6 -6 -6 -6 -6 -4 -2 -2 -5 -4 -3 -3 -3 -2 -1
-10 -11 -10 -11 -10 -10 -9 -8 -7 -7 -7 -7 -7 -7 -8 -8 -8 -8 -8 -7 -7 -6 -6 -5 -5 -6 -6 -6 -5 -2 -3 -4 -5 -4 -5 -5 -4 -4
-10 -11 -11 -11 -11 -10 -9 -9 -8 -7 -7 -7 -7 -7 -7 -7 -7 -7 -7 -7 -7 -6 -6 -6 -6 -6 -6 -6 -5 -3 -3 -4 -6 -6 -6 -6 -6 -6
-11 -11 -12 -12 -11 -11 -10 -10 -9 -8 -7 -7 -7 -8 -7 -7 -7 -7 -7 -6 -6 -7 -6 -6 -6 -5 -5 -5 -4 -3 -5 -6 -6 -7 -7 -7 -7 -7
-11 -11 -12 -12 -12 -12 -11 -11 -10 -9 -8 -8 -7 -7 -6 -6 -6 -6 -6 -6 -6 -6 -6 -6 -6 -6 -6 -5 -5 -6 -7 -8 -8 -8 -8 -8 -8 -8
-11 -12 -12 -12 -12 -12 -11 -11 -11 -10 -9 -9 -8 -7 -7 -7 -7 -7 -7 -7 -7 -7 -7 -7 -7 -7 -8 -7 -7 -8 -9 -9 -9 -9 -8 -9 -9 -9
-12 -12 -12 -12 -12 -12 -11 -11 -11 -11 -11 -10 -9 -9 -8 -8 -8 -8 -8 -8 -8 -8 -8 -9 -9 -9 -9 -9 -8 -9 -10 -11 -11 -10 -10 -9 -9 -10
-12 -12 -12 -12 -12 -12 -11 -11 -11 -11 -11 -11 -11 -10 -10 -9 -9 -9 -9 -9 -9 -9 -9 -9 -10 -10 -9 -9 -9 -10 -10 -11 -11 -11 -11 -11 -11 -10

GFSNE_850_temp_003.txt.gz
Temp
-2 -1 -1 -1 -1 -1 -1 -1 -1 -2 -2 -2 -1 -1 -1 0 1 2 2 1 2 2 2 3 3 3 3 4 5 6 6 6 8 8 8 8 7 7
-1 -2 -2 -2 -2 -2 -2 -2 -2 -2 -2 -2 -2 -2 -1 -1 -0 0 1 1 1 1 1 2 2 2 3 3 4 4 5 5 7 7 8 8 8 8
-2 -2 -2 -2 -3 -3 -3 -3 -3 -3 -3 -3 -3 -2 -2 -2 -1 -1 -0 -0 0 1 1 1 1 2 2 3 3 3 4 4 5 6 7 8 8 7
-3 -3 -3 -3 -4 -4 -4 -4 -4 -4 -4 -4 -3 -3 -3 -3 -3 -2 -2 -1 -1 -0 0 1 1 1 2 2 2 3 3 3 4 5 6 6 7 8
-4 -4 -4 -4 -4 -4 -4 -4 -4 -4 -5 -5 -5 -5 -4 -4 -4 -3 -3 -3 -2 -2 -1 -1 -0 1 1 1 1 2 2 3 3 4 5 6 6 7
-5 -5 -5 -5 -5 -5 -5 -6 -6 -6 -5 -5 -6 -6 -6 -5 -5 -5 -4 -4 -3 -2 -2 -1 -1 -0 1 1 1 1 1 2 2 3 4 5 5 6
-6 -6 -6 -6 -6 -6 -7 -7 -7 -7 -8 -8 -8 -8 -7 -7 -7 -6 -6 -5 -4 -4 -3 -2 -2 -1 0 0 1 1 1 1 2 2 3 4 5 5
-6 -6 -7 -7 -7 -8 -8 -8 -9 -9 -9 -9 -9 -9 -9 -9 -8 -8 -7 -7 -7 -6 -6 -4 -3 -2 -1 -0 0 0 1 1 1 2 2 3 4 5
-7 -8 -8 -9 -9 -9 -9 -9 -9 -9 -9 -9 -9 -9 -9 -9 -9 -8 -8 -8 -7 -7 -6 -5 -4 -2 -2 -1 -1 -0 0 1 1 1 2 2 3 4
-9 -9 -9 -9 -9 -9 -10 -10 -10 -9 -8 -8 -8 -8 -8 -8 -8 -8 -8 -8 -8 -7 -7 -7 -6 -4 -3 -3 -2 -1 -0 0 1 1 1 2 2 3
-9 -9 -9 -9 -9 -10 -10 -10 -10 -9 -9 -9 -9 -8 -8 -8 -8 -8 -8 -8 -8 -7 -7 -7 -6 -6 -5 -2 -3 -2 -1 -0 -0 0 1 2 2 2
-9 -9 -9 -9 -10 -10 -10 -10 -10 -9 -10 -9 -9 -9 -8 -8 -8 -8 -8 -8 -8 -8 -7 -7 -7 -7 -7 -3 -2 -2 -1 -1 -1 0 1 1 1 0
-10 -9 -10 -10 -10 -10 -10 -9 -9 -9 -9 -10 -9 -9 -9 -9 -8 -8 -8 -8 -7 -7 -7 -7 -6 -6 -6 -5 -4 -2 -2 -1 -1 -1 0 1 0 0
-9 -10 -10 -11 -11 -10 -10 -10 -9 -9 -9 -9 -9 -9 -9 -9 -8 -8 -8 -8 -8 -8 -7 -7 -7 -7 -6 -6 -6 -4 -3 -2 -1 -1 -1 -0 0 0
-10 -10 -10 -11 -11 -10 -10 -10 -9 -9 -9 -9 -9 -8 -8 -8 -8 -8 -8 -8 -8 -8 -7 -7 -7 -7 -7 -7 -6 -5 -5 -3 -2 -2 -2 -2 -1 -1
-10 -10 -11 -11 -11 -11 -10 -9 -9 -8 -8 -8 -8 -8 -8 -8 -8 -8 -8 -8 -8 -8 -8 -7 -7 -7 -7 -7 -7 -6 -6 -6 -4 -3 -2 -3 -3 -2
-10 -11 -11 -12 -11 -10 -10 -9 -9 -8 -7 -7 -7 -8 -8 -8 -8 -8 -8 -8 -8 -8 -7 -6 -7 -7 -7 -7 -7 -6 -6 -6 -4 -3 -2 -3 -4 -4
-11 -11 -12 -12 -12 -11 -11 -10 -9 -8 -8 -7 -7 -8 -8 -8 -8 -8 -8 -8 -8 -7 -7 -7 -6 -7 -7 -7 -7 -7 -6 -6 -5 -3 -3 -4 -5 -5
-11 -12 -12 -12 -12 -12 -12 -11 -10 -9 -9 -8 -8 -8 -8 -7 -8 -7 -7 -7 -7 -7 -7 -7 -7 -8 -7 -7 -6 -6 -6 -6 -6 -5 -5 -6 -7 -7
-12 -12 -12 -12 -12 -12 -12 -12 -11 -10 -9 -9 -8 -8 -7 -7 -7 -7 -7 -7 -7 -7 -7 -7 -8 -8 -8 -7 -7 -8 -7 -7 -8 -7 -7 -7 -8 -8
-12 -12 -12 -12 -12 -12 -12 -12 -12 -11 -11 -10 -9 -8 -8 -8 -8 -8 -8 -7 -7 -7 -8 -8 -8 -8 -8 -8 -8 -9 -8 -9 -9 -8 -8 -8 -8 -8
-13 -13 -12 -12 -12 -12 -12 -12 -11 -11 -11 -11 -10 -10 -9 -9 -8 -8 -8 -9 -9 -9 -8 -8 -9 -9 -9 -9 -9 -9 -10 -9 -10 -9 -9 -10 -9 -9
-13 -13 -13 -12 -12 -12 -12 -12 -12 -12 -11 -11 -11 -11 -11 -10 -10 -9 -9 -9 -9 -9 -10 -9 -10 -10 -9 -9 -10 -10 -10 -11 -11 -11 -11 -10 -10 -10

GFSNE_850_temp_009.txt.gz
Temp
-1 -3 -4 -3 -4 -4 -3 -2 -4 -3 -2 -1 -1 -2 -2 -2 -2 -2 -0 0 0 0 1 1 1 1 1 1 2 3 5 4 7 8 7 8 8 9
-2 -3 -3 -3 -3 -3 -3 -4 -4 -3 -2 -2 -2 -2 -3 -3 -2 -2 -2 -1 -1 -1 -0 0 0 1 1 1 1 2 3 4 4 6 7 8 9 8
-3 -3 -3 -3 -3 -4 -4 -4 -4 -4 -4 -3 -3 -3 -4 -3 -3 -3 -3 -3 -2 -2 -1 -1 -1 -1 -1 0 1 1 1 2 2 3 5 6 9 7
-3 -3 -4 -4 -4 -4 -5 -5 -5 -5 -5 -4 -4 -4 -4 -4 -4 -4 -4 -3 -3 -3 -2 -2 -1 -1 -1 -1 -0 1 1 1 2 2 3 4 5 6
-4 -4 -5 -5 -5 -6 -6 -6 -6 -6 -6 -6 -5 -5 -5 -5 -5 -5 -5 -5 -4 -4 -3 -3 -2 -2 -1 -1 -0 -0 1 1 2 2 3 3 4 4
-5 -5 -6 -6 -7 -7 -7 -8 -7 -7 -7 -7 -7 -6 -6 -6 -6 -6 -5 -5 -5 -5 -5 -4 -4 -3 -2 -2 -1 -0 0 1 1 2 2 3 3 4
-6 -6 -7 -7 -7 -7 -8 -8 -8 -8 -8 -8 -8 -7 -7 -7 -7 -6 -6 -6 -6 -6 -6 -6 -5 -5 -3 -2 -2 -1 -0 0 1 1 1 2 3 3
-8 -8 -8 -7 -7 -7 -8 -8 -9 -9 -9 -9 -8 -8 -7 -7 -7 -8 -7 -7 -7 -7 -7 -7 -7 -6 -5 -4 -3 -1 -1 -0 0 1 1 1 2 2
-10 -10 -10 -10 -9 -10 -10 -9 -9 -10 -10 -10 -10 -9 -9 -8 -8 -8 -8 -8 -7 -7 -7 -7 -7 -7 -7 -6 -4 -3 -2 -1 -0 -0 0 1 1 2
-10 -10 -10 -10 -10 -10 -10 -10 -10 -10 -10 -10 -10 -10 -9 -9 -9 -9 -9 -8 -8 -8 -8 -8 -8 -7 -7 -7 -6 -5 -4 -3 -2 -1 -0 0 0 1
-10 -11 -11 -10 -10 -10 -10 -10 -10 -10 -9 -9 -9 -9 -9 -9 -9 -9 -9 -9 -8 -8 -8 -8 -8 -8 -8 -7 -6 -5 -5 -4 -3 -3 -1 -1 -0 0
-11 -11 -10 -10 -10 -10 -10 -10 -10 -10 -10 -10 -9 -9 -9 -9 -9 -9 -9 -9 -8 -8 -8 -8 -7 -7 -7 -7 -6 -5 -5 -4 -4 -3 -2 -1 -1 -0
-11 -10 -10 -10 -10 -10 -11 -11 -11 -11 -11 -10 -10 -9 -9 -9 -9 -9 -9 -9 -8 -8 -7 -8 -7 -7 -7 -7 -7 -6 -6 -4 -4 -4 -4 -3 -2 -2
-11 -10 -10 -10 -11 -11 -11 -11 -10 -10 -10 -10 -10 -10 -9 -9 -9 -9 -9 -9 -9 -9 -8 -8 -8 -7 -7 -7 -6 -7 -6 -6 -5 -4 -4 -4 -3 -2
-11 -11 -11 -11 -11 -11 -11 -10 -10 -10 -9 -9 -9 -9 -9 -9 -9 -8 -9 -9 -9 -8 -8 -8 -8 -8 -8 -7 -7 -7 -7 -6 -6 -5 -5 -5 -4 -3
-11 -11 -11 -11 -11 -12 -11 -10 -10 -10 -9 -9 -8 -8 -8 -8 -9 -9 -8 -8 -8 -8 -8 -8 -8 -8 -8 -8 -8 -7 -7 -7 -6 -6 -6 -5 -4 -3
-12 -12 -11 -11 -12 -12 -12 -11 -10 -10 -9 -9 -8 -8 -8 -8 -9 -9 -9 -8 -8 -8 -8 -8 -8 -8 -8 -7 -7 -7 -7 -7 -7 -7 -6 -5 -5 -4
-12 -12 -12 -12 -12 -13 -13 -13 -11 -10 -10 -9 -9 -8 -8 -8 -8 -8 -9 -9 -8 -8 -8 -8 -8 -8 -8 -8 -8 -8 -7 -7 -7 -7 -6 -6 -6 -5
-12 -13 -12 -12 -13 -13 -13 -13 -12 -11 -10 -10 -9 -8 -8 -8 -8 -8 -8 -8 -8 -8 -8 -8 -8 -8 -8 -7 -8 -8 -8 -8 -7 -7 -7 -6 -6 -5
-13 -13 -13 -13 -13 -13 -13 -12 -12 -12 -11 -10 -10 -9 -9 -8 -8 -8 -8 -8 -8 -8 -8 -8 -8 -8 -8 -8 -8 -8 -7 -8 -7 -8 -7 -7 -6 -5
-13 -13 -13 -13 -13 -13 -13 -13 -12 -12 -12 -11 -11 -10 -10 -9 -9 -9 -8 -8 -8 -9 -9 -9 -8 -9 -8 -8 -9 -9 -8 -8 -9 -9 -8 -8 -8 -7
-14 -14 -13 -13 -13 -13 -13 -13 -13 -12 -12 -12 -12 -11 -11 -10 -10 -10 -9 -9 -9 -9 -9 -9 -9 -9 -9 -9 -10 -9 -10 -10 -10 -9 -9 -9 -9 -9
-14 -14 -14 -14 -13 -13 -13 -13 -13 -13 -12 -12 -12 -12 -12 -11 -11 -11 -11 -10 -10 -10 -10 -10 -10 -10 -10 -9 -11 -10 -10 -10 -10 -10 -10 -10 -9 -9

GFSNE_850_temp_015.txt.gz
Temp
-2 -2 -2 -2 -2 -3 -4 -4 -4 -3 -1 -0 -2 -1 -1 -0 -0 1 1 1 0 0 0 1 2 2 2 3 3 3 3 4 4 4 5 6 6 6
-2 -2 -3 -3 -3 -3 -3 -3 -3 -3 -3 -2 -2 -1 -0 0 1 1 -0 -0 -1 -1 -1 -0 0 1 1 1 2 2 2 3 3 4 4 5 5 5
-3 -3 -3 -3 -2 -2 -2 -2 -2 -2 -2 -1 -1 -0 -0 -0 -0 -0 -0 -1 -1 -1 -1 -1 -1 -0 -0 0 0 1 1 2 2 2 3 4 4 4
-4 -4 -3 -3 -3 -2 -2 -2 -2 -2 -1 -1 -1 -1 -1 -1 -1 -1 -1 -0 -1 -0 -0 -1 -1 -1 -1 -1 -1 -0 0 1 1 1 2 3 3 3
-4 -4 -3 -3 -3 -3 -3 -3 -3 -3 -3 -2 -2 -2 -2 -2 -2 -2 -1 -1 -1 -1 -1 -1 -2 -2 -2 -2 -1 -1 -1 -0 0 0 1 1 2 2
-4 -4 -4 -4 -4 -4 -4 -4 -4 -4 -4 -4 -3 -3 -3 -2 -2 -2 -2 -2 -2 -1 -1 -1 -2 -2 -2 -3 -3 -3 -2 -1 -1 -0 0 1 1 1
-5 -5 -5 -5 -5 -6 -6 -7 -7 -6 -6 -5 -4 -3 -3 -2 -2 -2 -2 -2 -3 -3 -3 -3 -2 -2 -3 -3 -3 -3 -3 -2 -1 -1 -0 0 0 1
-6 -6 -5 -5 -6 -6 -7 -7 -8 -8 -8 -7 -6 -5 -5 -5 -5 -5 -5 -5 -5 -4 -5 -4 -4 -4 -4 -3 -3 -3 -3 -3 -3 -2 -1 -1 -1 0
-7 -6 -6 -6 -6 -6 -7 -8 -8 -8 -9 -9 -9 -8 -8 -7 -7 -7 -6 -6 -6 -6 -6 -6 -5 -5 -5 -5 -4 -4 -4 -4 -4 -4 -3 -2 -1 -1
-8 -8 -7 -7 -7 -8 -9 -8 -9 -9 -8 -8 -9 -8 -8 -8 -8 -7 -7 -7 -7 -7 -6 -6 -6 -6 -6 -6 -6 -5 -5 -5 -5 -5 -5 -4 -3 -2
-10 -9 -9 -9 -9 -9 -9 -9 -9 -9 -8 -8 -8 -8 -8 -8 -8 -8 -8 -8 -7 -7 -7 -7 -6 -6 -6 -6 -6 -6 -6 -6 -6 -6 -6 -6 -4 -3
-10 -10 -10 -10 -9 -9 -9 -9 -9 -9 -9 -9 -9 -9 -9 -8 -8 -8 -8 -9 -8 -8 -7 -7 -6 -6 -6 -6 -5 -5 -6 -6 -6 -6 -6 -6 -5 -4
-11 -10 -10 -9 -9 -10 -10 -10 -10 -10 -11 -10 -10 -10 -9 -9 -8 -8 -8 -8 -8 -7 -7 -7 -7 -6 -6 -6 -6 -5 -5 -5 -5 -5 -5 -5 -5 -5
-11 -11 -10 -10 -10 -10 -10 -11 -11 -11 -10 -10 -9 -9 -8 -8 -8 -8 -7 -7 -7 -8 -7 -7 -7 -7 -6 -6 -6 -5 -5 -5 -5 -5 -5 -5 -5 -5
-11 -11 -11 -11 -11 -11 -11 -11 -11 -10 -10 -10 -9 -9 -8 -8 -8 -7 -7 -7 -7 -7 -7 -8 -8 -7 -7 -7 -6 -6 -5 -5 -6 -6 -6 -5 -5 -5
-12 -11 -11 -11 -11 -11 -11 -11 -11 -10 -10 -10 -9 -9 -8 -8 -7 -7 -7 -7 -7 -7 -7 -7 -7 -7 -7 -7 -7 -7 -6 -6 -6 -6 -6 -5 -5 -5
-12 -12 -12 -12 -12 -11 -11 -11 -11 -11 -11 -10 -10 -9 -9 -8 -7 -7 -7 -7 -7 -7 -7 -7 -7 -7 -7 -7 -7 -7 -7 -6 -6 -6 -6 -6 -5 -5
-12 -12 -12 -13 -12 -12 -12 -12 -12 -11 -12 -11 -10 -10 -9 -8 -8 -7 -7 -8 -7 -7 -6 -7 -7 -7 -7 -7 -7 -7 -7 -7 -6 -6 -6 -6 -6 -6
-13 -13 -13 -13 -13 -13 -13 -13 -12 -12 -12 -11 -11 -11 -10 -9 -8 -8 -7 -7 -7 -7 -6 -6 -7 -7 -6 -6 -6 -7 -7 -7 -7 -6 -6 -6 -7 -6
-14 -14 -14 -14 -14 -14 -13 -13 -13 -12 -12 -12 -11 -11 -11 -10 -9 -9 -8 -8 -8 -7 -7 -7 -7 -7 -7 -7 -7 -7 -7 -7 -8 -7 -7 -6 -7 -7
-15 -15 -15 -15 -15 -15 -14 -14 -13 -13 -13 -13 -12 -12 -11 -10 -10 -10 -9 -9 -8 -8 -8 -9 -8 -8 -8 -8 -7 -8 -7 -8 -8 -8 -8 -7 -7 -7
-16 -15 -15 -15 -15 -15 -15 -15 -14 -14 -14 -14 -13 -12 -11 -11 -11 -10 -10 -10 -10 -9 -9 -9 -10 -9 -9 -9 -8 -8 -9 -9 -9 -9 -9 -9 -8 -7
-16 -16 -16 -16 -16 -16 -16 -16 -15 -15 -14 -14 -14 -13 -12 -12 -11 -11 -11 -11 -10 -10 -10 -10 -9 -9 -10 -10 -9 -9 -10 -10 -10 -10 -10 -9 -9 -9